Location: Dana
(41.8364°N, 106.7042°W)
Time: 11:34:18
(UTC+00:00)

Courier 1B Rocket - All Passes

Search period start: 15 May 2026 00:00
Search period end: 25 May 2026 00:00
Orbit: 920 x 1201 km, 28.2° (Epoch: 14 May)

Date Brightness Start Highest point End Pass type
(mag) Time Alt. Az. Time Alt. Az. Time Alt. Az.
15 May - 14:51:41 10° SSW 14:55:37 17° SSE 14:59:36 10° SE daylight
15 May - 16:43:05 10° SW 16:48:01 24° S 16:53:10 10° SE daylight
15 May - 18:35:59 10° WSW 18:40:33 20° SSW 18:45:19 10° SSE daylight
16 May - 13:51:49 10° S 13:54:45 14° SSE 13:57:40 10° SE daylight
16 May - 15:42:21 10° SW 15:47:04 23° S 15:51:56 10° SE daylight
16 May - 17:34:49 10° SW 17:39:34 22° S 17:44:31 10° SE daylight
16 May - 19:29:15 10° SW 19:32:02 13° SSW 19:34:53 10° S daylight
17 May - 14:41:45 10° SW 14:46:10 20° S 14:50:38 10° SE daylight
17 May - 16:33:48 10° SW 16:38:37 23° S 16:43:35 10° SE daylight
17 May - 18:27:20 10° SW 18:31:05 16° SSW 18:34:56 10° SSE daylight
18 May - 13:41:23 10° SSW 13:45:16 17° SSE 13:49:10 10° SE daylight
18 May - 15:32:53 10° SW 15:37:41 23° S 15:42:33 10° SE daylight
18 May - 17:25:53 10° SW 17:30:08 19° SSW 17:34:31 10° SSE daylight
19 May - 12:41:22 10° S 12:44:23 14° SSE 12:47:24 10° SE daylight
19 May - 14:32:05 10° SW 14:36:45 22° S 14:41:27 10° SE daylight
19 May - 16:24:40 10° SW 16:29:12 21° S 16:33:51 10° SE daylight
19 May - 18:19:28 10° SW 18:21:35 12° SSW 18:23:44 10° S daylight
20 May - 11:42:34 10° SSE 11:43:31 10° SSE 11:44:28 10° SSE daylight
20 May - 13:31:23 10° SW 13:35:50 20° S 13:40:15 10° SE daylight
20 May - 15:23:35 10° SW 15:28:17 23° S 15:33:02 10° SE daylight
20 May - 17:17:18 10° SW 17:20:41 15° SSW 17:24:08 10° SSE daylight
21 May - 12:30:53 10° SSW 12:34:56 18° SSE 12:38:55 10° SE daylight
21 May - 14:22:35 10° SW 14:27:22 23° S 14:32:07 10° SE daylight
21 May - 16:15:44 10° SW 16:19:47 18° SSW 16:23:53 10° SSE daylight
22 May - 11:30:40 10° SSW 11:34:01 15° SSE 11:37:19 10° SE daylight
22 May - 13:21:39 10° SW 13:26:26 22° S 13:31:08 10° SE daylight
22 May - 15:14:25 10° SW 15:18:52 21° S 15:23:21 10° SE daylight
22 May - 17:09:43 10° SW 17:11:12 11° SSW 17:12:41 10° S daylight
23 May - 10:31:13 10° S 10:33:07 11° SSE 10:34:59 10° SE visible
23 May - 12:20:51 10° SW 12:25:30 21° S 12:30:02 10° SE daylight
23 May - 14:13:13 10° SW 14:17:58 22° S 14:22:40 10° SE daylight
23 May - 16:07:09 10° SW 16:10:19 14° SSW 16:13:31 10° SSE daylight
24 May - 11:20:12 10° SSW 11:24:34 19° SSE 11:28:48 10° SE daylight
24 May - 13:12:06 10° SW 13:17:02 23° S 13:21:51 10° SE daylight
24 May - 15:05:26 10° SW 15:09:27 18° SSW 15:13:26 10° SSE daylight
